Cecil Field, FL

3:48 AM EDT on May 27, 2017 (GMT -0400)
Cecil

Weather History for KVQQ - March, 2013

Change the Weather History Date:

Wednesday, March 13, 2013

  Actual Average (KNIP) Record (KNIP)
Temperature  
Mean Temperature 56 °F -  
Max Temperature 69 °F 71 °F 84 °F (2006)
Min Temperature 44 °F 53 °F 39 °F (1998)
Degree Days  
Heating Degree Days 8    
Growing Degree Days 6 (Base 50)    
Moisture  
Dew Point 36 °F    
Average Humidity 57    
Maximum Humidity 93    
Minimum Humidity 24    
Precipitation  
Precipitation 0.00 in - - ()
Sea Level Pressure  
Sea Level Pressure 30.11 in    
Wind  
Wind Speed 6 mph (NW)    
Max Wind Speed 14 mph    
Max Gust Speed -    
Visibility 10 miles    
Events      
Averages and records for this station are not official NWS values.
T = Trace of Precipitation, MM = Missing Value Source: NWS Daily Summary

Daily Weather History Graph

Daily Weather History Graph

Search for Another Location

Airport or City:

Trip Planner

Search our weather history database for the weather conditions in past years. The results will help you decide how hot, cold, wet, or windy it might be!

Date:

Astronomy

Mar. 13, 2013 Rise Set
Actual Time 7:39 AM EDT 7:34 PM EDT
Civil Twilight 7:15 AM EDT 7:58 PM EDT
Nautical Twilight 6:47 AM EDT 8:26 PM EDT
Astronomical Twilight 6:19 AM EDT 8:54 PM EDT
Moon 8:29 AM EDT (3/13) 9:36 PM EDT (3/13)
Length of Visible Light 12h 43m
Length of Day
11h 55m
Waxing Crescent, 4% of the Moon is Illuminated
Mar 13
Waxing Crescent
Mar 19
First Quarter
Mar 27
Full
Apr 3
Last Quarter
Apr 10
New

Hourly Weather History & Observations

Time (EDT) Temp. Windchill Dew Point Humidity Pressure Visibility Wind Dir Wind Speed Gust Speed Precip Events Conditions
12:15 AM 44.6 °F - 42.8 °F 93% 30.05 in 10.0 mi Calm Calm - N/A   Clear
12:35 AM 46.4 °F - 44.6 °F 93% 30.04 in 10.0 mi Calm Calm - N/A   Clear
12:55 AM 44.6 °F - 42.8 °F 93% 30.04 in 10.0 mi Calm Calm - N/A   Clear
1:15 AM 46.4 °F 43.5 °F 42.8 °F 87% 30.05 in 10.0 mi West 5.8 mph - N/A   Clear
1:35 AM 46.4 °F 42.9 °F 42.8 °F 87% 30.05 in 10.0 mi West 6.9 mph - N/A   Clear
1:55 AM 48.2 °F - 41.0 °F 76% 30.05 in 10.0 mi WNW 6.9 mph - N/A   Clear
2:15 AM 50.0 °F - 41.0 °F 71% 30.06 in 10.0 mi WNW 8.1 mph - N/A   Clear
2:35 AM 51.8 °F - 41.0 °F 67% 30.06 in 10.0 mi NW 9.2 mph - N/A   Clear
2:55 AM 51.8 °F - 41.0 °F 67% 30.06 in 10.0 mi NW 11.5 mph - N/A   Clear
3:15 AM 51.8 °F - 39.2 °F 62% 30.06 in 10.0 mi NW 9.2 mph - N/A   Clear
3:35 AM 51.8 °F - 39.2 °F 62% 30.06 in 10.0 mi NW 10.4 mph - N/A   Clear
3:55 AM 50.0 °F - 39.2 °F 66% 30.06 in 10.0 mi NW 10.4 mph - N/A   Clear
4:15 AM 50.0 °F - 39.2 °F 66% 30.06 in 10.0 mi NW 10.4 mph - N/A   Clear
4:35 AM 50.0 °F - 39.2 °F 66% 30.07 in 10.0 mi NW 10.4 mph - N/A   Clear
4:55 AM 50.0 °F - 37.4 °F 62% 30.07 in 10.0 mi NW 8.1 mph - N/A   Clear
5:15 AM 48.2 °F - 37.4 °F 66% 30.08 in 10.0 mi NW 5.8 mph - N/A   Clear
5:35 AM 48.2 °F - 37.4 °F 66% 30.09 in 10.0 mi NW 6.9 mph - N/A   Clear
5:55 AM 48.2 °F - 37.4 °F 66% 30.10 in 10.0 mi NW 6.9 mph - N/A   Clear
6:15 AM 48.2 °F - 37.4 °F 66% 30.11 in 10.0 mi NW 10.4 mph - N/A   Clear
6:35 AM 48.2 °F - 37.4 °F 66% 30.12 in 10.0 mi NW 9.2 mph - N/A   Clear
6:50 AM 48.2 °F - 37.4 °F 66% 30.11 in 10.0 mi NNW 8.1 mph - N/A   Clear
7:50 AM 46.4 °F 43.5 °F 35.6 °F 66% 30.16 in 10.0 mi NNW 5.8 mph - N/A   Clear
8:50 AM 50.0 °F - 37.4 °F 62% 30.18 in 10.0 mi NNW 9.2 mph - N/A   Clear
9:50 AM 55.4 °F - 35.6 °F 47% 30.19 in 10.0 mi NNW 11.5 mph - N/A   Clear
10:50 AM 59.0 °F - 32.0 °F 36% 30.21 in 10.0 mi North 11.5 mph - N/A   Clear
12:50 PM 66.2 °F - 30.2 °F 26% 30.19 in 10.0 mi NNW 11.5 mph - N/A   Clear
1:50 PM 66.2 °F - 32.0 °F 28% 30.16 in 10.0 mi NNW 13.8 mph - N/A   Clear
2:50 PM 68.0 °F - 30.2 °F 24% 30.12 in 10.0 mi NW 6.9 mph - N/A   Clear
3:50 PM 68.0 °F - 32.0 °F 26% 30.11 in 10.0 mi WNW 6.9 mph - N/A   Clear
4:50 PM 69.8 °F - 32.0 °F 25% 30.09 in 10.0 mi NW 13.8 mph - N/A   Clear
5:50 PM 68.0 °F - 32.0 °F 26% 30.09 in 10.0 mi NW 9.2 mph - N/A   Clear
6:50 PM 66.2 °F - 30.2 °F 26% 30.09 in 10.0 mi NW 9.2 mph - N/A   Clear
7:50 PM 62.6 °F - 30.2 °F 30% 30.10 in 10.0 mi WNW 5.8 mph - N/A   Clear
8:15 PM 57.2 °F - 32.0 °F 38% 30.12 in 10.0 mi WSW 3.5 mph - N/A   Clear
8:35 PM 55.4 °F - 32.0 °F 41% 30.13 in 10.0 mi West 4.6 mph - N/A   Clear
8:55 PM 55.4 °F - 32.0 °F 41% 30.13 in 10.0 mi West 4.6 mph - N/A   Clear
9:15 PM 53.6 °F - 32.0 °F 44% 30.14 in 10.0 mi WNW 4.6 mph - N/A   Clear
9:35 PM 53.6 °F - 32.0 °F 44% 30.15 in 10.0 mi West 4.6 mph - N/A   Clear
9:55 PM 50.0 °F - 33.8 °F 54% 30.16 in 10.0 mi Calm Calm - N/A   Clear
10:15 PM 50.0 °F - 32.0 °F 50% 30.16 in 10.0 mi Calm Calm - N/A   Clear
10:35 PM 46.4 °F - 35.6 °F 66% 30.17 in 10.0 mi Calm Calm - N/A   Clear
10:55 PM 44.6 °F - 35.6 °F 71% 30.18 in 10.0 mi Calm Calm - N/A   Clear
11:15 PM 48.2 °F - 32.0 °F 54% 30.19 in 10.0 mi West 5.8 mph - N/A   Clear
11:55 PM 48.2 °F - 32.0 °F 54% 30.20 in 10.0 mi West 5.8 mph - N/A   Clear